Вернуться в каталог

METEOR 2-17 DEB

АктивенPO
NORAD 31400·DEBRIS·🇷🇺 Russia

Запущен Jan 30, 1988 с Plesetsk Cosmodrome

Loading…

Ближайшие Пролёты (ближайшие 24 часа)

TLE

УстаревшееSource: Space-Track

Эпоха: Sep 2, 2026, 12:24 UTC

1 31400U 88005V   26245.51715852  .00003760  00000-0  19071-2 0  9998
2 31400  82.5293 173.9369 0013246 353.5768   6.5238 14.15745055632293

Отслеживайте METEOR 2-17 DEB в реальном времени с AllMySat

Download on the App Store